USAF Thule Airport

Airport
ICAO code: 
BGTL
IATA Code: 
THU
Summary
ICAO Region: 
NAT
Territory: 
Location: 
Thule,
Serving: 
Thule
Elevation: 
251 ft
Coordinates: 
Aerial View: 
76° 31' 51.792" N, 68° 42' 23.582" W
Airport WX: 
Low Level Turbulence
Metar
Observation
BGTL 190056Z AUTO 07011KT 9999 CLR M26/M28 A2992 RMK AO2 SLP125 T12651279 TSNO $
Station
Thule A. B.
Date/Time
2022-01-19 00:56:00
Wind direction
70°
Wind speed
11 kts
Lowest cloud amount
n/a
Temperature
-26.5°C
Dew point
-27.9°C
Humidity
87%
Weather condition
n/a

Description

Military (USA) and civil airport in northwest Greenland.

Climatology

Tundra climate (Köppen climate classification ET) - warmest month has an average temperature of 0 - 10 degrees C.

Runways

Designator Length Width Surface Rops
8/26 3047 43 ASPH No/No
08T/26T 3047 43 ASP No/No
Airport map: 
Aerial View: 

SKYbrary Partners:

Safety knowledge contributed by: